• In Belarus
  • List of Countries
  • For 7 days
  • Water Temperature
  • Satellite Maps
  • Weather Map
  • Weather Widgets
  • user-avatar
    Login

    Hourly Weather Bregenz

    Today, 16 July, Tuesday

    Time Temperature Precipitation Wind Pressure Humidity
    00:00 +9°C° 0 mm 1 mps 647 mmHg 95%
    01:00 +9°C° 0 mm 1 mps 647 mmHg 96%
    02:00 +8°C° 0 mm 1 mps 647 mmHg 96%
    03:00 +7°C° 0 mm 0 mps 646 mmHg 96%
    04:00 +7°C° 0 mm 0 mps 646 mmHg 96%
    05:00 +8°C° 0 mm 0 mps 647 mmHg 95%
    06:00 +9°C° 0 mm 0 mps 647 mmHg 94%
    07:00 +10°C° 0 mm 0 mps 648 mmHg 93%
    08:00 +12°C° 0 mm 0 mps 648 mmHg 84%
    09:00 +15°C° 0 mm 1 mps 649 mmHg 75%
    10:00 +16°C° 0 mm 1 mps 649 mmHg 66%
    11:00 +18°C° 0 mm 1 mps 649 mmHg 62%
    12:00 +19°C° 0 mm 1 mps 649 mmHg 58%
    13:00 +19°C° 0 mm 2 mps 649 mmHg 53%
    14:00 +19°C° 0 mm 2 mps 649 mmHg 52%
    15:00 +19°C° 0 mm 2 mps 649 mmHg 52%
    16:00 +19°C° 0 mm 2 mps 649 mmHg 51%
    17:00 +19°C° 0 mm 1 mps 649 mmHg 56%
    18:00 +18°C° 0 mm 1 mps 648 mmHg 62%
    19:00 +15°C° 0 mm 0 mps 648 mmHg 68%
    20:00 +14°C° 0 mm 1 mps 648 mmHg 71%
    21:00 +12°C° 0 mm 1 mps 647 mmHg 75%
    22:00 +11°C° 0 mm 1 mps 647 mmHg 78%
    23:00 +10°C° 0 mm 1 mps 647 mmHg 79%

    Tomorrow, 17 July, Wednesday

    Time Temperature Precipitation Wind Pressure Humidity
    00:00 +10°C° 0 mm 1 mps 647 mmHg 80%
    01:00 +9°C° 0 mm 1 mps 647 mmHg 80%
    02:00 +9°C° 0 mm 1 mps 646 mmHg 80%
    03:00 +9°C° 0 mm 1 mps 646 mmHg 80%
    04:00 +9°C° 0 mm 1 mps 646 mmHg 81%
    05:00 +10°C° 0 mm 1 mps 646 mmHg 78%
    06:00 +12°C° 0 mm 1 mps 646 mmHg 75%
    07:00 +13°C° 0 mm 1 mps 647 mmHg 72%
    08:00 +15°C° 0 mm 1 mps 647 mmHg 66%
    09:00 +18°C° 0 mm 1 mps 648 mmHg 59%
    10:00 +20°C° 0 mm 1 mps 648 mmHg 52%
    11:00 +20°C° 0 mm 1 mps 648 mmHg 51%
    12:00 +20°C° 0 mm 2 mps 648 mmHg 50%
    13:00 +20°C° 0 mm 2 mps 648 mmHg 49%
    14:00 +20°C° 0 mm 2 mps 648 mmHg 50%
    15:00 +20°C° 0 mm 2 mps 648 mmHg 51%
    16:00 +20°C° 0 mm 2 mps 648 mmHg 51%
    17:00 +20°C° 0.1 mm 1 mps 647 mmHg 58%
    18:00 +19°C° 0.1 mm 1 mps 647 mmHg 64%
    19:00 +15°C° 0.1 mm 0 mps 647 mmHg 71%
    20:00 +15°C° 0 mm 1 mps 646 mmHg 72%
    21:00 +13°C° 0 mm 1 mps 646 mmHg 74%
    22:00 +11°C° 0 mm 1 mps 646 mmHg 75%
    23:00 +11°C° 0 mm 1 mps 645 mmHg 76%

    Day after tomorrow, 18 July, Thursday

    Time Temperature Precipitation Wind Pressure Humidity
    00:00 +10°C° 0 mm 1 mps 645 mmHg 78%
    01:00 +10°C° 0 mm 1 mps 645 mmHg 79%
    02:00 +10°C° 0 mm 1 mps 645 mmHg 79%
    03:00 +10°C° 0 mm 1 mps 645 mmHg 80%
    04:00 +9°C° 0 mm 1 mps 645 mmHg 80%
    05:00 +11°C° 0 mm 1 mps 645 mmHg 78%
    06:00 +12°C° 0 mm 1 mps 645 mmHg 76%
    07:00 +12°C° 0 mm 0 mps 646 mmHg 74%
    08:00 +14°C° 0 mm 1 mps 646 mmHg 69%
    09:00 +16°C° 0 mm 1 mps 647 mmHg 64%
    10:00 +18°C° 0 mm 1 mps 647 mmHg 59%
    11:00 +18°C° 0.3 mm 2 mps 647 mmHg 58%
    12:00 +18°C° 0.3 mm 2 mps 647 mmHg 58%
    13:00 +18°C° 0.3 mm 2 mps 647 mmHg 58%
    14:00 +19°C° 0.1 mm 2 mps 647 mmHg 55%
    15:00 +19°C° 0.1 mm 2 mps 647 mmHg 53%
    16:00 +19°C° 0.1 mm 2 mps 647 mmHg 50%
    17:00 +18°C° 0.1 mm 2 mps 647 mmHg 58%
    18:00 +18°C° 0.1 mm 1 mps 647 mmHg 65%
    19:00 +16°C° 0.1 mm 1 mps 647 mmHg 73%
    20:00 +14°C° 0 mm 1 mps 647 mmHg 76%
    21:00 +13°C° 0 mm 1 mps 647 mmHg 79%
    22:00 +11°C° 0 mm 1 mps 647 mmHg 82%
    23:00 +11°C° 0 mm 1 mps 647 mmHg 83%

    19 July, Friday

    Time Temperature Precipitation Wind Pressure Humidity
    00:00 +11°C° 0 mm 1 mps 646 mmHg 83%
    01:00 +11°C° 0 mm 1 mps 646 mmHg 83%
    02:00 +10°C° 0 mm 1 mps 646 mmHg 83%
    03:00 +10°C° 0 mm 1 mps 646 mmHg 83%
    04:00 +10°C° 0 mm 1 mps 646 mmHg 83%
    05:00 +11°C° 0 mm 1 mps 647 mmHg 80%
    06:00 +12°C° 0 mm 1 mps 647 mmHg 78%
    07:00 +14°C° 0 mm 1 mps 648 mmHg 75%
    08:00 +15°C° 0 mm 1 mps 648 mmHg 70%
    09:00 +18°C° 0 mm 1 mps 649 mmHg 64%
    10:00 +20°C° 0 mm 1 mps 649 mmHg 58%
    11:00 +20°C° 0.1 mm 1 mps 649 mmHg 58%
    12:00 +21°C° 0.1 mm 1 mps 649 mmHg 57%
    13:00 +21°C° 0.1 mm 1 mps 649 mmHg 57%
    14:00 +21°C° 0.2 mm 1 mps 649 mmHg 58%
    15:00 +21°C° 0.2 mm 1 mps 649 mmHg 59%
    16:00 +21°C° 0.2 mm 1 mps 649 mmHg 61%
    17:00 +20°C° 0.3 mm 1 mps 649 mmHg 68%
    18:00 +19°C° 0.3 mm 1 mps 649 mmHg 74%
    19:00 +16°C° 0.3 mm 0 mps 648 mmHg 81%
    20:00 +14°C° 0 mm 0 mps 648 mmHg 83%
    21:00 +14°C° 0 mm 1 mps 648 mmHg 86%
    22:00 +12°C° 0 mm 1 mps 648 mmHg 88%
    23:00 +12°C° 0 mm 1 mps 648 mmHg 89%

    20 July, Saturday

    Time Temperature Precipitation Wind Pressure Humidity
    00:00 +12°C° 0 mm 1 mps 647 mmHg 89%
    01:00 +11°C° 0 mm 1 mps 647 mmHg 90%
    02:00 +11°C° 0 mm 1 mps 647 mmHg 90%
    03:00 +11°C° 0 mm 1 mps 647 mmHg 90%
    04:00 +11°C° 0 mm 1 mps 647 mmHg 90%
    05:00 +12°C° 0 mm 1 mps 647 mmHg 88%
    06:00 +13°C° 0 mm 1 mps 647 mmHg 86%
    07:00 +14°C° 0 mm 1 mps 648 mmHg 84%
    08:00 +16°C° 0 mm 1 mps 648 mmHg 75%
    09:00 +20°C° 0 mm 1 mps 649 mmHg 65%
    10:00 +23°C° 0 mm 1 mps 650 mmHg 56%
    11:00 +23°C° 0 mm 1 mps 650 mmHg 54%
    12:00 +24°C° 0 mm 1 mps 650 mmHg 51%
    13:00 +24°C° 0 mm 1 mps 650 mmHg 49%
    14:00 +23°C° 0.5 mm 1 mps 650 mmHg 57%
    15:00 +22°C° 0.5 mm 1 mps 649 mmHg 66%
    16:00 +21°C° 0.5 mm 1 mps 649 mmHg 74%
    17:00 +19°C° 0.8 mm 1 mps 649 mmHg 80%
    18:00 +17°C° 0.8 mm 2 mps 649 mmHg 86%
    19:00 +15°C° 0.8 mm 2 mps 648 mmHg 92%
    20:00 +14°C° 1 mm 2 mps 649 mmHg 94%
    21:00 +14°C° 1 mm 1 mps 649 mmHg 95%
    22:00 +13°C° 1 mm 1 mps 649 mmHg 97%
    23:00 +13°C° 0.5 mm 1 mps 649 mmHg 96%

    21 July, Sunday

    Time Temperature Precipitation Wind Pressure Humidity
    00:00 +12°C° 0.5 mm 1 mps 649 mmHg 95%
    01:00 +12°C° 0.5 mm 1 mps 649 mmHg 94%
    02:00 +12°C° 0 mm 1 mps 649 mmHg 93%
    03:00 +11°C° 0 mm 1 mps 649 mmHg 92%
    04:00 +11°C° 0 mm 1 mps 649 mmHg 91%
    05:00 +12°C° 0 mm 1 mps 649 mmHg 90%
    06:00 +13°C° 0 mm 1 mps 650 mmHg 89%
    07:00 +13°C° 0 mm 0 mps 650 mmHg 87%
    08:00 +16°C° 0.2 mm 1 mps 651 mmHg 81%
    09:00 +18°C° 0.2 mm 1 mps 651 mmHg 74%
    10:00 +20°C° 0.2 mm 1 mps 652 mmHg 67%
    11:00 +19°C° 0.3 mm 2 mps 652 mmHg 67%
    12:00 +20°C° 0.3 mm 2 mps 652 mmHg 68%
    13:00 +20°C° 0.3 mm 2 mps 652 mmHg 69%
    14:00 +20°C° 0.6 mm 2 mps 652 mmHg 72%
    15:00 +20°C° 0.6 mm 1 mps 652 mmHg 74%
    16:00 +20°C° 0.6 mm 1 mps 652 mmHg 77%
    17:00 +20°C° 0.5 mm 1 mps 652 mmHg 80%
    18:00 +19°C° 0.5 mm 1 mps 652 mmHg 84%
    19:00 +16°C° 0.5 mm 0 mps 652 mmHg 87%
    20:00 +16°C° 0 mm 1 mps 652 mmHg 88%
    21:00 +14°C° 0 mm 1 mps 652 mmHg 90%
    22:00 +13°C° 0 mm 1 mps 651 mmHg 91%
    23:00 +13°C° 0 mm 1 mps 651 mmHg 92%
    Show more